This is the latest recevied weather packets stored in our database for station/object N1ADJ. If no packets are shown the sender has not sent any weather packets the latest 10 day(s).
| Time | Temp. | Humidity | Pressure | Rain* | Wind** | Luminosity | Snow |
|---|---|---|---|---|---|---|---|
| 1777533317 | 7.22° C | 96% | 1010.5 hPa | 1.52 mm | - | - | - |
| 1777532718 | 7.22° C | 96% | 1010.4 hPa | 1.52 mm | - | - | - |
| 1777530357 | 7.22° C | 96% | 1010.7 hPa | 1.27 mm | - | - | - |
| 1777529117 | 7.22° C | 96% | 1011.2 hPa | 0.76 mm | - | - | - |
| 1777528517 | 7.22° C | 96% | 1011.2 hPa | 0.51 mm | - | - | - |
| 1777527617 | 7.22° C | 96% | 1011.6 hPa | 0.51 mm | - | - | - |
| 1777527037 | 6.67° C | 96% | 1012 hPa | 0.51 mm | - | - | - |
| 1777525837 | 6.67° C | 96% | 1012.1 hPa | 0.76 mm | - | - | - |
| 1777524637 | 6.67° C | 96% | 1012.3 hPa | 1.02 mm | - | - | - |
| 1777523117 | 6.67° C | 96% | 1012.8 hPa | 1.27 mm | - | - | - |
| 1777521318 | 6.67° C | 95% | 1012.9 hPa | 0.76 mm | - | - | - |
| 1777521017 | 6.67° C | 95% | 1012.8 hPa | 1.02 mm | - | - | - |
| 1777520718 | 6.67° C | 95% | 1012.9 hPa | 0.76 mm | - | - | - |
| 1777519518 | 6.67° C | 95% | 1013.2 hPa | 1.02 mm | - | - | - |
| 1777518918 | 6.67° C | 95% | 1013.3 hPa | 1.27 mm | - | - | - |
| 1777518018 | 6.67° C | 95% | 1013.7 hPa | 1.27 mm | - | - | - |
| 1777517418 | 6.67° C | 95% | 1013.8 hPa | 1.52 mm | - | - | - |
| 1777517117 | 6.67° C | 95% | 1013.8 hPa | 1.52 mm | - | - | - |
| 1777516217 | 7.22° C | 95% | 1013.8 hPa | 1.27 mm | - | - | - |
| 1777514138 | 7.22° C | 94% | 1014.3 hPa | 0.76 mm | - | - | - |
| 1777512057 | 7.22° C | 94% | 1014.5 hPa | 0 mm | - | - | - |
| 1777511718 | 7.22° C | 94% | 1014.5 hPa | 0 mm | - | - | - |
| 1777511418 | 7.22° C | 94% | 1014.4 hPa | 0 mm | - | - | - |
| 1777510517 | 7.22° C | 93% | 1014.6 hPa | 0.25 mm | - | - | - |
| 1777509917 | 7.22° C | 93% | 1014.3 hPa | 0.25 mm | - | - | - |
* Rain latest hour (hover to see other rain measurements)
** Current wind speed in m/s (hover to see current wind gust speed)